Weather History for Tulsa, OK

Change the Weather History Date:

Monday, April 16, 2012

  Actual Average Record
Temperature  
Mean Temperature 59 °F 61 °F  
Max Temperature 71 °F 72 °F 93 °F (1982)
Min Temperature 47 °F 49 °F 31 °F (1953)
Degree Days  
Heating Degree Days 6 6  
Month to date heating degree days 42 126  
Since 1 July heating degree days 2694 3475  
Cooling Degree Days 0 2  
Month to date cooling degree days 37 21  
Year to date cooling degree days 112 33  
Growing Degree Days 8 (Base 50)    
Moisture  
Dew Point 42 °F    
Average Humidity 54    
Maximum Humidity 71    
Minimum Humidity 37    
Precipitation  
Precipitation 0.00 in 0.12 in 1.38 in (1968)
Month to date precipitation 1.43 1.76  
Year to date precipitation 9.89 8.56  
Sea Level Pressure  
Sea Level Pressure 30.11 in    
Wind  
Wind Speed 5 mph (NNW)    
Max Wind Speed 18 mph    
Max Gust Speed 25 mph    
Visibility 10 miles    
Events      
T = Trace of Precipitation, MM = Missing Value Source: NWS Daily Summary

Daily Weather History Graph

Daily Weather History Graph

Search for Another Location

Airport:

Trip Planner

Search our weather history database for the weather conditions in past years. The results will help you decide how hot, cold, wet, or windy it might be!

Date:

Astronomy

Apr. 16, 2012 Rise Set
Actual Time 6:48 AM CDT 7:58 PM CDT
Civil Twilight 6:21 AM CDT 8:25 PM CDT
Nautical Twilight 5:50 AM CDT 8:57 PM CDT
Astronomical Twilight 5:17 AM CDT 9:30 PM CDT
Moon 4:09 AM CDT (4/16) 4:01 PM CDT (4/16)
Length of Visible Light 14h 03m
Length of Day
13h 10m
Waning Crescent, 19% of the Moon is Illuminated
Apr 16
Waning Crescent
Apr 21
New
Apr 29
First Quarter
May 5
Full
May 12
Last Quarter

Hourly Weather History & Observations

Time (CDT) Temp. Dew Point Humidity Pressure Visibility Wind Dir Wind Speed Gust Speed Precip Events Conditions
12:53 AM 57.9 °F 42.1 °F 56% 29.86 in 10.0 mi West 16.1 mph 21.9 mph N/A   Clear
1:53 AM 55.9 °F 42.1 °F 60% 29.89 in 10.0 mi WNW 9.2 mph - N/A   Clear
2:53 AM 55.9 °F 42.1 °F 60% 29.92 in 10.0 mi NW 9.2 mph - N/A   Clear
3:53 AM 54.0 °F 42.1 °F 64% 29.96 in 10.0 mi WNW 8.1 mph - N/A   Clear
4:53 AM 54.0 °F 42.1 °F 64% 30.00 in 10.0 mi NW 12.7 mph - N/A   Clear
5:53 AM 52.0 °F 41.0 °F 66% 30.04 in 10.0 mi NW 6.9 mph - N/A   Clear
6:53 AM 48.0 °F 39.9 °F 74% 30.06 in 10.0 mi NNW 4.6 mph - N/A   Clear
7:53 AM 52.0 °F 43.0 °F 71% 30.11 in 10.0 mi Calm Calm - N/A   Clear
8:53 AM 57.0 °F 43.0 °F 59% 30.14 in 10.0 mi NNW 5.8 mph - N/A   Clear
9:53 AM 59.0 °F 42.1 °F 53% 30.15 in 10.0 mi North 8.1 mph - N/A   Clear
10:53 AM 60.1 °F 42.1 °F 51% 30.19 in 10.0 mi NNW 4.6 mph - N/A   Clear
11:53 AM 64.0 °F 42.1 °F 45% 30.20 in 10.0 mi Variable 3.5 mph - N/A   Clear
12:53 PM 64.0 °F 42.1 °F 45% 30.19 in 10.0 mi Calm Calm - N/A   Clear
1:53 PM 66.9 °F 42.1 °F 40% 30.18 in 10.0 mi West 3.5 mph - N/A   Clear
2:53 PM 69.1 °F 43.0 °F 39% 30.17 in 10.0 mi North 3.5 mph - N/A   Clear
3:53 PM 70.0 °F 43.0 °F 38% 30.16 in 10.0 mi Variable 3.5 mph - N/A   Clear
4:53 PM 70.0 °F 43.0 °F 38% 30.16 in 10.0 mi NNW 5.8 mph - N/A   Clear
5:53 PM 70.0 °F 44.1 °F 39% 30.17 in 10.0 mi NNW 4.6 mph - N/A   Clear
6:53 PM 68.0 °F 42.1 °F 39% 30.17 in 10.0 mi North 5.8 mph - N/A   Clear
7:53 PM 64.0 °F 41.0 °F 43% 30.17 in 10.0 mi NE 6.9 mph - N/A   Clear
8:53 PM 62.1 °F 43.0 °F 50% 30.18 in 10.0 mi NE 4.6 mph - N/A   Clear
9:53 PM 60.1 °F 43.0 °F 53% 30.21 in 10.0 mi ENE 3.5 mph - N/A   Clear
10:53 PM 55.9 °F 44.1 °F 64% 30.22 in 10.0 mi ENE 3.5 mph - N/A   Clear
11:53 PM 57.0 °F 43.0 °F 59% 30.23 in 10.0 mi Calm Calm - N/A   Clear